Time,TemperatureF,DewpointF,PressureIn,WindDirection,WindDirectionDegrees,WindSpeedMPH,WindSpeedGustMPH,Humidity,HourlyPrecipIn,Conditions,Clouds,dailyrainin,SoftwareType,DateUTC
2013-02-18 00:02:00,10.0,-3.0,-100.00,NNW,330,11.0,24.0,56,0.00,,,-99.99,,2013-02-18 05:02:00,
2013-02-18 00:21:00,10.0,-3.0,-100.00,NNW,340,17.0,24.0,56,0.00,,,-99.99,,2013-02-18 05:21:00,
2013-02-18 00:32:00,10.0,-3.0,-100.00,NNW,340,12.0,20.0,57,0.00,,,-99.99,,2013-02-18 05:32:00,
2013-02-18 00:41:00,10.0,-3.0,-100.00,NNW,335,12.0,21.0,56,0.00,,,-99.99,,2013-02-18 05:41:00,
2013-02-18 00:52:00,10.0,-3.0,-100.00,North,-999,-999.0,-999.0,56,0.00,,,-99.99,,2013-02-18 05:52:00,
2013-02-18 01:02:00,9.0,-3.0,-100.00,NNW,340,14.0,27.0,57,0.00,,,-99.99,,2013-02-18 06:02:00,
2013-02-18 01:11:00,9.0,-3.0,-100.00,NNW,345,11.0,26.0,57,0.00,,,-99.99,,2013-02-18 06:11:00,
2013-02-18 01:21:00,9.0,-3.0,-100.00,NNW,340,14.0,21.0,56,0.00,,,-99.99,,2013-02-18 06:21:00,
2013-02-18 01:32:00,9.0,-3.0,-100.00,NNW,340,7.0,23.0,57,0.00,,,-99.99,,2013-02-18 06:32:00,
2013-02-18 01:42:00,9.0,-3.0,-100.00,NNW,340,13.0,24.0,56,0.00,,,-99.99,,2013-02-18 06:42:00,
2013-02-18 01:51:00,9.0,-3.0,-100.00,NNW,345,11.0,22.0,57,0.00,,,-99.99,,2013-02-18 06:51:00,
2013-02-18 02:02:00,9.0,-3.0,-100.00,NNW,340,17.0,30.0,56,0.00,,,-99.99,,2013-02-18 07:02:00,
2013-02-18 02:11:00,9.0,-3.0,-100.00,NNW,340,12.0,29.0,56,0.00,,,-99.99,,2013-02-18 07:11:00,
2013-02-18 02:22:00,9.0,-3.0,-100.00,NNW,340,16.0,29.0,56,0.00,,,-99.99,,2013-02-18 07:22:00,
2013-02-18 02:32:00,9.0,-3.0,-100.00,NNW,335,11.0,24.0,56,0.00,,,-99.99,,2013-02-18 07:32:00,
2013-02-18 02:42:00,9.0,-3.0,-100.00,NNW,335,12.0,22.0,56,0.00,,,-99.99,,2013-02-18 07:42:00,
2013-02-18 02:51:00,9.0,-3.0,-100.00,NNW,345,10.0,25.0,56,0.00,,,-99.99,,2013-02-18 07:51:00,
2013-02-18 03:01:00,9.0,-3.0,-100.00,NNW,345,10.0,25.0,56,0.00,,,-99.99,,2013-02-18 08:01:00,
2013-02-18 03:11:00,9.0,-3.0,-100.00,NNW,335,16.0,25.0,56,0.00,,,-99.99,,2013-02-18 08:11:00,
2013-02-18 03:21:00,9.0,-3.0,-100.00,NNW,340,15.0,24.0,56,0.00,,,-99.99,,2013-02-18 08:21:00,
2013-02-18 03:32:00,9.0,-3.0,-100.00,NNW,345,8.0,21.0,58,0.00,,,-99.99,,2013-02-18 08:32:00,
2013-02-18 03:42:00,9.0,-3.0,-100.00,NNW,330,9.0,21.0,59,0.00,,,-99.99,,2013-02-18 08:42:00,
2013-02-18 03:52:00,9.0,-3.0,-100.00,NNW,340,10.0,19.0,58,0.00,,,-99.99,,2013-02-18 08:52:00,
2013-02-18 04:03:00,9.0,-3.0,-100.00,NNW,345,7.0,16.0,59,0.00,,,-99.99,,2013-02-18 09:03:00,
2013-02-18 04:11:00,8.0,-3.0,-100.00,North,350,6.0,21.0,59,0.00,,,-99.99,,2013-02-18 09:11:00,
2013-02-18 04:22:00,8.0,-3.0,-100.00,NNW,340,12.0,18.0,58,0.00,,,-99.99,,2013-02-18 09:22:00,
2013-02-18 04:32:00,8.0,-3.0,-100.00,NNW,345,9.0,14.0,58,0.00,,,-99.99,,2013-02-18 09:32:00,
2013-02-18 04:42:00,8.0,-3.0,-100.00,NNW,330,7.0,14.0,58,0.00,,,-99.99,,2013-02-18 09:42:00,
2013-02-18 04:52:00,8.0,-3.0,-100.00,NNW,340,7.0,9.0,59,0.00,,,-99.99,,2013-02-18 09:52:00,
2013-02-18 05:01:00,8.0,-3.0,-100.00,NNW,345,8.0,12.0,59,0.00,,,-99.99,,2013-02-18 10:01:00,
2013-02-18 05:11:00,8.0,-3.0,-100.00,NNW,340,10.0,14.0,59,0.00,,,-99.99,,2013-02-18 10:11:00,
2013-02-18 05:21:00,8.0,-3.0,-100.00,NNW,335,5.0,14.0,59,0.00,,,-99.99,,2013-02-18 10:21:00,
2013-02-18 05:32:00,8.0,-3.0,-100.00,NNW,330,6.0,11.0,59,0.00,,,-99.99,,2013-02-18 10:32:00,
2013-02-18 05:42:00,8.0,-3.0,-100.00,NNW,345,6.0,10.0,60,0.00,,,-99.99,,2013-02-18 10:42:00,
2013-02-18 05:52:00,8.0,-3.0,-100.00,NW,315,5.0,12.0,60,0.00,,,-99.99,,2013-02-18 10:52:00,
2013-02-18 06:02:00,8.0,-3.0,-100.00,NW,325,7.0,16.0,60,0.00,,,-99.99,,2013-02-18 11:02:00,
2013-02-18 06:11:00,8.0,-3.0,-100.00,NNW,345,11.0,18.0,59,0.00,,,-99.99,,2013-02-18 11:11:00,
2013-02-18 06:22:00,8.0,-3.0,-100.00,NNW,345,12.0,19.0,59,0.00,,,-99.99,,2013-02-18 11:22:00,
2013-02-18 06:32:00,8.0,-4.0,-100.00,NW,320,10.0,27.0,59,0.00,,,-99.99,,2013-02-18 11:32:00,
2013-02-18 06:42:00,8.0,-3.0,-100.00,NNW,340,11.0,21.0,59,0.00,,,-99.99,,2013-02-18 11:42:00,
2013-02-18 06:52:00,8.0,-3.0,-100.00,NNW,340,13.0,21.0,59,0.00,,,-99.99,,2013-02-18 11:52:00,
2013-02-18 07:02:00,8.0,-4.0,-100.00,NNW,345,9.0,21.0,59,0.00,,,-99.99,,2013-02-18 12:02:00,
2013-02-18 07:11:00,8.0,-4.0,-100.00,NW,325,12.0,23.0,58,0.00,,,-99.99,,2013-02-18 12:11:00,
2013-02-18 07:22:00,8.0,-4.0,-100.00,NNW,345,9.0,24.0,59,0.00,,,-99.99,,2013-02-18 12:22:00,
2013-02-18 07:32:00,8.0,-4.0,-100.00,North,-999,-999.0,-999.0,58,0.00,,,-99.99,,2013-02-18 12:32:00,
2013-02-18 07:42:00,8.0,-4.0,-100.00,NNW,340,12.0,29.0,58,0.00,,,-99.99,,2013-02-18 12:42:00,
2013-02-18 07:52:00,8.0,-4.0,-100.00,NNW,345,11.0,23.0,57,0.00,,,-99.99,,2013-02-18 12:52:00,
2013-02-18 08:03:00,9.0,-4.0,-100.00,NNW,340,11.0,23.0,56,0.00,,,-99.99,,2013-02-18 13:03:00,
2013-02-18 08:12:00,9.0,-4.0,-100.00,NNW,345,11.0,21.0,55,0.00,,,-99.99,,2013-02-18 13:12:00,
2013-02-18 08:22:00,9.0,-4.0,-100.00,NNW,340,11.0,23.0,54,0.00,,,-99.99,,2013-02-18 13:22:00,
2013-02-18 08:32:00,10.0,-4.0,-100.00,NNW,330,12.0,23.0,54,0.00,,,-99.99,,2013-02-18 13:32:00,
2013-02-18 08:42:00,10.0,-3.0,-100.00,NNW,345,15.0,29.0,53,0.00,,,-99.99,,2013-02-18 13:42:00,
2013-02-18 08:53:00,11.0,-3.0,-100.00,NNW,340,11.0,26.0,52,0.00,,,-99.99,,2013-02-18 13:53:00,
2013-02-18 09:02:00,12.0,-3.0,-100.00,NNW,340,8.0,20.0,51,0.00,,,-99.99,,2013-02-18 14:02:00,
2013-02-18 09:11:00,12.0,-3.0,-100.00,NNW,335,7.0,19.0,49,0.00,,,-99.99,,2013-02-18 14:11:00,
2013-02-18 09:22:00,13.0,-3.0,-100.00,NNW,345,8.0,14.0,47,0.00,,,-99.99,,2013-02-18 14:22:00,
2013-02-18 09:33:00,14.0,-3.0,-100.00,NNW,330,11.0,22.0,45,0.00,,,-99.99,,2013-02-18 14:33:00,
2013-02-18 09:42:00,14.0,-3.0,-100.00,NNW,345,7.0,19.0,44,0.00,,,-99.99,,2013-02-18 14:42:00,
2013-02-18 09:53:00,15.0,-3.0,-100.00,NNW,345,7.0,17.0,43,0.00,,,-99.99,,2013-02-18 14:53:00,
2013-02-18 10:02:00,15.0,-3.0,-100.00,NNW,340,11.0,29.0,41,0.00,,,-99.99,,2013-02-18 15:02:00,
2013-02-18 10:11:00,16.0,-3.0,-100.00,NNW,340,9.0,16.0,40,0.00,,,-99.99,,2013-02-18 15:11:00,
2013-02-18 10:22:00,17.0,-3.0,-100.00,NNW,345,11.0,26.0,40,0.00,,,-99.99,,2013-02-18 15:22:00,
2013-02-18 10:32:00,17.0,-4.0,-100.00,NNW,340,14.0,28.0,39,0.00,,,-99.99,,2013-02-18 15:32:00,
2013-02-18 10:42:00,17.0,-4.0,-100.00,NNW,340,16.0,26.0,38,0.00,,,-99.99,,2013-02-18 15:42:00,
2013-02-18 10:52:00,18.0,-4.0,-100.00,NNW,340,12.0,24.0,38,0.00,,,-99.99,,2013-02-18 15:52:00,
2013-02-18 11:03:00,18.0,-5.0,-100.00,NW,325,16.0,26.0,35,0.00,,,-99.99,,2013-02-18 16:03:00,
2013-02-18 11:12:00,18.0,-6.0,-100.00,NNW,330,15.0,28.0,33,0.00,,,-99.99,,2013-02-18 16:12:00,
2013-02-18 11:22:00,19.0,-6.0,-100.00,NNW,340,14.0,30.0,32,0.00,,,-99.99,,2013-02-18 16:22:00,
2013-02-18 11:32:00,20.0,-6.0,-100.00,NNW,345,12.0,22.0,30,0.00,,,-99.99,,2013-02-18 16:32:00,
2013-02-18 11:42:00,20.0,-6.0,-100.00,NNW,335,12.0,22.0,30,0.00,,,-99.99,,2013-02-18 16:42:00,
2013-02-18 11:52:00,21.0,-8.0,-100.00,NNW,345,13.0,29.0,27,0.00,,,-99.99,,2013-02-18 16:52:00,
2013-02-18 12:04:00,22.0,-7.0,-100.00,NNW,335,10.0,27.0,27,0.00,,,-99.99,,2013-02-18 17:04:00,
2013-02-18 12:12:00,21.0,-9.0,-100.00,NNW,345,16.0,29.0,25,0.00,,,-99.99,,2013-02-18 17:12:00,
2013-02-18 12:22:00,22.0,-9.0,-100.00,NNW,330,14.0,22.0,24,0.00,,,-99.99,,2013-02-18 17:22:00,
2013-02-18 12:42:00,23.0,-8.0,-100.00,North,0,8.0,24.0,24,0.00,,,-99.99,,2013-02-18 17:42:00,
2013-02-18 12:52:00,23.0,-8.0,-100.00,North,0,8.0,24.0,24,0.00,,,-99.99,,2013-02-18 17:52:00,
2013-02-18 13:02:00,23.0,-8.0,-100.00,North,0,8.0,24.0,24,0.00,,,-99.99,,2013-02-18 18:02:00,
2013-02-18 13:12:00,23.0,-9.0,-100.00,North,350,12.0,34.0,23,0.00,,,-99.99,,2013-02-18 18:12:00,
2013-02-18 13:23:00,23.0,-10.0,-100.00,NW,325,15.0,30.0,21,0.00,,,-99.99,,2013-02-18 18:23:00,
2013-02-18 13:33:00,23.0,-10.0,-100.00,NNW,335,12.0,24.0,21,0.00,,,-99.99,,2013-02-18 18:33:00,
2013-02-18 13:43:00,24.0,-9.0,-100.00,NNW,345,10.0,28.0,22,0.00,,,-99.99,,2013-02-18 18:43:00,
2013-02-18 13:52:00,23.0,-10.0,-100.00,NNW,340,13.0,24.0,21,0.00,,,-99.99,,2013-02-18 18:52:00,
2013-02-18 14:12:00,23.0,-11.0,-100.00,NNW,335,13.0,26.0,21,0.00,,,-99.99,,2013-02-18 19:12:00,
2013-02-18 14:22:00,23.0,-11.0,-100.00,NNW,345,16.0,28.0,20,0.00,,,-99.99,,2013-02-18 19:22:00,
2013-02-18 14:33:00,23.0,-11.0,-100.00,NNW,340,14.0,24.0,20,0.00,,,-99.99,,2013-02-18 19:33:00,
2013-02-18 14:42:00,24.0,-12.0,-100.00,NNW,340,11.0,23.0,19,0.00,,,-99.99,,2013-02-18 19:42:00,
2013-02-18 14:52:00,24.0,-12.0,-100.00,NNW,340,11.0,23.0,19,0.00,,,-99.99,,2013-02-18 19:52:00,
2013-02-18 15:02:00,24.0,-12.0,-100.00,NNW,340,9.0,24.0,19,0.00,,,-99.99,,2013-02-18 20:02:00,
2013-02-18 15:12:00,24.0,-13.0,-100.00,NNW,335,11.0,24.0,19,0.00,,,-99.99,,2013-02-18 20:12:00,
2013-02-18 15:23:00,24.0,-12.0,-100.00,NNW,340,9.0,21.0,19,0.00,,,-99.99,,2013-02-18 20:23:00,
2013-02-18 15:33:00,24.0,-12.0,-100.00,NNW,335,12.0,19.0,19,0.00,,,-99.99,,2013-02-18 20:33:00,
2013-02-18 15:42:00,24.0,-13.0,-100.00,North,350,7.0,21.0,18,0.00,,,-99.99,,2013-02-18 20:42:00,
2013-02-18 15:52:00,24.0,-13.0,-100.00,NNW,340,11.0,17.0,18,0.00,,,-99.99,,2013-02-18 20:52:00,
2013-02-18 16:03:00,24.0,-13.0,-100.00,NNW,340,9.0,21.0,18,0.00,,,-99.99,,2013-02-18 21:03:00,
2013-02-18 16:12:00,24.0,-14.0,-100.00,NNW,340,11.0,22.0,17,0.00,,,-99.99,,2013-02-18 21:12:00,
2013-02-18 16:22:00,24.0,-15.0,-100.00,NNW,340,18.0,28.0,16,0.00,,,-99.99,,2013-02-18 21:22:00,
2013-02-18 16:33:00,24.0,-14.0,-100.00,NNW,340,9.0,32.0,17,0.00,,,-99.99,,2013-02-18 21:33:00,
2013-02-18 16:42:00,23.0,-15.0,-100.00,NNW,335,9.0,22.0,17,0.00,,,-99.99,,2013-02-18 21:42:00,
2013-02-18 16:52:00,23.0,-14.0,-100.00,NNW,330,9.0,23.0,17,0.00,,,-99.99,,2013-02-18 21:52:00,
2013-02-18 17:03:00,23.0,-14.0,-100.00,North,350,6.0,19.0,18,0.00,,,-99.99,,2013-02-18 22:03:00,
2013-02-18 17:12:00,23.0,-14.0,-100.00,NNW,330,11.0,18.0,17,0.00,,,-99.99,,2013-02-18 22:12:00,
2013-02-18 17:22:00,23.0,-14.0,-100.00,NNW,330,6.0,23.0,19,0.00,,,-99.99,,2013-02-18 22:22:00,
2013-02-18 17:33:00,22.0,-9.0,-100.00,West,275,4.0,14.0,24,0.00,,,-99.99,,2013-02-18 22:33:00,
2013-02-18 17:43:00,22.0,-14.0,-100.00,NNW,345,7.0,13.0,19,0.00,,,-99.99,,2013-02-18 22:43:00,
2013-02-18 17:52:00,21.0,-10.0,-100.00,NNW,345,6.0,11.0,24,0.00,,,-99.99,,2013-02-18 22:52:00,
2013-02-18 18:02:00,20.0,-8.0,-100.00,NNW,330,4.0,8.0,28,0.00,,,-99.99,,2013-02-18 23:02:00,
2013-02-18 18:12:00,20.0,-7.0,-100.00,NNW,340,4.0,8.0,28,0.00,,,-99.99,,2013-02-18 23:12:00,
2013-02-18 18:23:00,21.0,-11.0,-100.00,NNW,335,6.0,8.0,23,0.00,,,-99.99,,2013-02-18 23:23:00,
2013-02-18 18:33:00,21.0,-11.0,-100.00,NNW,335,5.0,10.0,22,0.00,,,-99.99,,2013-02-18 23:33:00,
2013-02-18 18:43:00,21.0,-11.0,-100.00,NNW,340,3.0,11.0,22,0.00,,,-99.99,,2013-02-18 23:43:00,
2013-02-18 18:52:00,20.0,-9.0,-100.00,NNW,335,3.0,10.0,26,0.00,,,-99.99,,2013-02-18 23:52:00,
2013-02-18 19:03:00,19.0,-6.0,-100.00,NNW,345,2.0,7.0,31,0.00,,,-99.99,,2013-02-19 00:03:00,
2013-02-18 19:12:00,18.0,-6.0,-100.00,NW,325,2.0,6.0,33,0.00,,,-99.99,,2013-02-19 00:12:00,
2013-02-18 19:22:00,19.0,-7.0,-100.00,NNW,335,3.0,7.0,29,0.00,,,-99.99,,2013-02-19 00:22:00,
2013-02-18 19:34:00,19.0,-9.0,-100.00,NNW,335,4.0,7.0,26,0.00,,,-99.99,,2013-02-19 00:34:00,
2013-02-18 19:43:00,20.0,-10.0,-100.00,NNW,345,4.0,9.0,25,0.00,,,-99.99,,2013-02-19 00:43:00,
2013-02-18 19:53:00,20.0,-11.0,-100.00,North,0,4.0,13.0,23,0.00,,,-99.99,,2013-02-19 00:53:00,
2013-02-18 20:03:00,19.0,-8.0,-100.00,NNW,345,3.0,7.0,30,0.00,,,-99.99,,2013-02-19 01:03:00,
2013-02-18 20:14:00,18.0,-7.0,-100.00,NW,325,2.0,7.0,31,0.00,,,-99.99,,2013-02-19 01:14:00,
2013-02-18 20:34:00,17.0,-5.0,-100.00,SW,235,1.0,3.0,36,0.00,,,-99.99,,2013-02-19 01:34:00,
2013-02-18 20:43:00,17.0,-5.0,-100.00,NNW,345,2.0,3.0,36,0.00,,,-99.99,,2013-02-19 01:43:00,
2013-02-18 20:54:00,17.0,-3.0,-100.00,South,185,0.0,4.0,40,0.00,,,-99.99,,2013-02-19 01:54:00,
2013-02-18 21:03:00,16.0,-3.0,-100.00,NNW,335,1.0,4.0,41,0.00,,,-99.99,,2013-02-19 02:03:00,
2013-02-18 21:14:00,16.0,-4.0,-100.00,East,80,1.0,2.0,41,0.00,,,-99.99,,2013-02-19 02:14:00,
2013-02-18 21:23:00,15.0,-3.0,-100.00,SSE,155,1.0,2.0,42,0.00,,,-99.99,,2013-02-19 02:23:00,
2013-02-18 21:34:00,15.0,-5.0,-100.00,SE,145,1.0,3.0,40,0.00,,,-99.99,,2013-02-19 02:34:00,
2013-02-18 21:43:00,15.0,-3.0,-100.00,NW,310,0.0,1.0,44,0.00,,,-99.99,,2013-02-19 02:43:00,
2013-02-18 21:53:00,14.0,-4.0,-100.00,NNW,330,2.0,3.0,44,0.00,,,-99.99,,2013-02-19 02:53:00,
2013-02-18 22:06:00,14.0,-3.0,-100.00,NNW,340,2.0,6.0,46,0.00,,,-99.99,,2013-02-19 03:06:00,
2013-02-18 22:14:00,14.0,-6.0,-100.00,NW,315,2.0,5.0,40,0.00,,,-99.99,,2013-02-19 03:14:00,
2013-02-18 22:24:00,14.0,-3.0,-100.00,NW,325,1.0,4.0,46,0.00,,,-99.99,,2013-02-19 03:24:00,
2013-02-18 22:34:00,13.0,-3.0,-100.00,NNW,340,4.0,6.0,47,0.00,,,-99.99,,2013-02-19 03:34:00,
2013-02-18 22:44:00,13.0,-2.0,-100.00,NNW,340,2.0,6.0,51,0.00,,,-99.99,,2013-02-19 03:44:00,
2013-02-18 22:53:00,13.0,-3.0,-100.00,NW,325,2.0,5.0,48,0.00,,,-99.99,,2013-02-19 03:53:00,
2013-02-18 23:02:00,13.0,1.0,-100.00,WSW,240,0.0,2.0,57,0.00,,,-99.99,,2013-02-19 04:02:00,
2013-02-18 23:14:00,12.0,0.0,-100.00,SW,235,0.0,2.0,57,0.00,,,-99.99,,2013-02-19 04:14:00,
2013-02-18 23:23:00,12.0,-3.0,-100.00,NNW,340,1.0,2.0,50,0.00,,,-99.99,,2013-02-19 04:23:00,
2013-02-18 23:33:00,11.0,-4.0,-100.00,NW,310,1.0,2.0,49,0.00,,,-99.99,,2013-02-19 04:33:00,
2013-02-18 23:43:00,11.0,-4.0,-100.00,NW,320,1.0,2.0,49,0.00,,,-99.99,,2013-02-19 04:43:00,
2013-02-18 23:53:00,11.0,-5.0,-100.00,NNW,340,2.0,4.0,49,0.00,,,-99.99,,2013-02-19 04:53:00,